Location: Marcé
(47.5801°N, 0.3280°W)
Time: 13:17:40
(UTC+02:00)

ACS3 Solar Sail - Visible Passes

Search period start: 18 June 2024 00:00
Search period end: 28 June 2024 00:00
Orbit: 992 x 1024 km, 97.4° (Epoch: 17 June)

Date Brightness Start Highest point End Pass type
(mag) Time Alt. Az. Time Alt. Az. Time Alt. Az.
18 Jun 5.4 22:42:36 10° SE 22:48:29 45° ENE 22:54:22 10° N visible
19 Jun 6.0 00:27:10 10° SSW 00:32:43 35° W 00:38:22 10° NNW visible
19 Jun 4.9 23:16:37 10° SSE 23:22:46 79° ENE 23:29:00 10° N visible
20 Jun 6.8 01:03:16 10° SW 01:07:35 19° W 01:11:55 10° NW visible
20 Jun 5.2 23:51:24 12° S 23:57:14 60° W 00:03:24 10° NNW visible
21 Jun 5.4 22:41:43 10° SE 22:47:37 47° ENE 22:53:32 10° N visible
22 Jun 6.1 00:26:20 10° SSW 00:31:53 34° W 00:37:29 10° NNW visible
22 Jun 4.9 23:15:41 10° SSE 23:21:55 81° ENE 23:28:09 10° N visible
23 Jun 6.8 01:02:33 10° SW 01:06:45 19° W 01:10:59 10° NW visible
23 Jun 5.3 23:50:27 11° S 23:56:23 59° W 00:02:32 10° NNW visible
24 Jun 5.3 22:40:50 10° SE 22:46:45 48° ENE 22:52:40 10° N visible
25 Jun 6.1 00:25:32 10° SSW 00:31:03 33° W 00:36:36 10° NNW visible
25 Jun 4.9 23:14:49 10° SSE 23:21:03 83° ENE 23:27:18 10° N visible
26 Jun 6.9 01:01:49 10° SW 01:05:56 18° W 01:10:03 10° NW visible
26 Jun 5.3 23:49:30 10° S 23:55:32 57° W 00:01:40 10° NNW visible
27 Jun 5.3 22:39:57 10° SE 22:45:53 49° ENE 22:51:50 10° N visible
